| time (UTC) | temp C | wind direction | speed KPH | gust KPH | rain 1hr cm | rain 24hr cm | rain mn cm | humidity % | barometer mb |
| 20260504081933 | 8 | 131 | 0.0 | 1.6 | 0.00 | 0.00 | 0.00 | 66 | 1016.0 |
| 20260504081433 | 8 | 90 | 0.0 | 1.6 | 0.00 | 0.00 | 0.00 | 65 | 1016.0 |
| 20260504080933 | 8 | 90 | 0.0 | 1.6 | 0.00 | 0.00 | 0.00 | 64 | 1016.0 |
| 20260504080433 | 9 | 107 | 1.6 | 1.6 | 0.00 | 0.00 | 0.00 | 63 | 1016.0 |
| 20260504070221 | 8 | 90 | 0.0 | 1.6 | 0.00 | 0.00 | 0.00 | 63 | 1016.0 |
| 20260504050623 | 7 | 90 | 0.0 | 1.6 | 0.00 | 0.00 | 0.00 | 64 | 1016.0 |
| 20260504050123 | 7 | 128 | 0.0 | 1.6 | 0.00 | 0.00 | 0.00 | 62 | 1016.0 |
| 20260504045623 | 7 | 90 | 0.0 | 1.6 | 0.00 | 0.00 | 0.00 | 64 | 1016.0 |
| 20260504045124 | 7 | 179 | 0.0 | 1.6 | 0.00 | 0.00 | 0.00 | 62 | 1016.0 |
| 20260504044623 | 7 | 0 | 0.0 | 1.6 | 0.00 | 0.00 | 0.00 | 60 | 1016.0 |
| 20260504043913 | 7 | 179 | 0.0 | 3.2 | 0.00 | 0.00 | 0.00 | 62 | 1016.0 |
| 20260504043412 | 7 | 179 | 1.6 | 1.6 | 0.00 | 0.00 | 0.00 | 64 | 1016.0 |
| 20260504042912 | 7 | 179 | 0.0 | 1.6 | 0.00 | 0.00 | 0.00 | 62 | 1016.0 |
| 20260504042412 | 7 | 0 | 0.0 | 1.6 | 0.00 | 0.00 | 0.00 | 58 | 1016.0 |
| 20260504041912 | 7 | 281 | 0.0 | 1.6 | 0.00 | 0.00 | 0.00 | 59 | 1016.0 |
| 20260504041412 | 7 | 90 | 0.0 | 1.6 | 0.00 | 0.00 | 0.00 | 61 | 1016.0 |
| 20260504040912 | 7 | 179 | 0.0 | 3.2 | 0.00 | 0.00 | 0.00 | 63 | 1016.0 |
| 20260504040413 | 7 | 142 | 0.0 | 1.6 | 0.00 | 0.00 | 0.00 | 59 | 1016.0 |
| 20260504035912 | 8 | 118 | 0.0 | 1.6 | 0.00 | 0.00 | 0.00 | 60 | 1016.0 |
| 20260504035412 | 8 | 179 | 0.0 | 1.6 | 0.00 | 0.00 | 0.00 | 58 | 1016.0 |
| 20260504034912 | 8 | 0 | 0.0 | 3.2 | 0.00 | 0.00 | 0.00 | 58 | 1016.0 |
| 20260504034413 | 8 | 163 | 1.6 | 1.6 | 0.00 | 0.00 | 0.00 | 54 | 1016.0 |
| 20260504033448 | 8 | 148 | 0.0 | 1.6 | 0.00 | 0.00 | 0.00 | 54 | 1016.0 |
| 20260504032526 | 8 | 179 | 0.0 | 1.6 | 0.00 | 0.00 | 0.00 | 54 | 1016.0 |
| 20260504032026 | 8 | 139 | 0.0 | 3.2 | 0.00 | 0.00 | 0.00 | 54 | 1016.0 |
| 20260504031527 | 8 | 138 | 0.0 | 3.2 | 0.00 | 0.00 | 0.00 | 56 | 1016.0 |
| 20260504031026 | 8 | 159 | 1.6 | 1.6 | 0.00 | 0.00 | 0.00 | 55 | 1016.0 |
| 20260504030527 | 8 | 66 | 0.0 | 1.6 | 0.00 | 0.00 | 0.00 | 57 | 1016.0 |
| 20260504030026 | 8 | 0 | 0.0 | 1.6 | 0.00 | 0.00 | 0.00 | 58 | 1016.0 |
| 20260504025526 | 8 | 42 | 0.0 | 1.6 | 0.00 | 0.00 | 0.00 | 55 | 1016.0 |
| 20260504025026 | 9 | 64 | 0.0 | 1.6 | 0.00 | 0.00 | 0.00 | 56 | 1016.0 |
| 20260504024527 | 9 | 29 | 0.0 | 3.2 | 0.00 | 0.00 | 0.00 | 54 | 1016.0 |
| 20260504024026 | 9 | 179 | 1.6 | 1.6 | 0.00 | 0.00 | 0.00 | 53 | 1016.0 |
| 20260504023527 | 9 | 90 | 0.0 | 0.0 | 0.00 | 0.00 | 0.00 | 54 | 1016.0 |
| 20260504023027 | 9 | 65 | 0.0 | 1.6 | 0.00 | 0.00 | 0.00 | 52 | 1016.0 |
| 20260504022526 | 9 | 60 | 0.0 | 1.6 | 0.00 | 0.00 | 0.00 | 57 | 1016.0 |
| 20260504022026 | 10 | 168 | 1.6 | 1.6 | 0.00 | 0.00 | 0.00 | 48 | 1016.0 |
| 20260504021314 | 10 | 138 | 0.0 | 1.6 | 0.00 | 0.00 | 0.00 | 49 | 1016.0 |
| 20260504020814 | 10 | 149 | 0.0 | 1.6 | 0.00 | 0.00 | 0.00 | 47 | 1016.0 |
| 20260504020313 | 10 | 134 | 1.6 | 3.2 | 0.00 | 0.00 | 0.00 | 47 | 1016.0 |
| 20260504015813 | 10 | 163 | 3.2 | 3.2 | 0.00 | 0.00 | 0.00 | 45 | 1016.0 |
| 20260504015313 | 10 | 90 | 1.6 | 1.6 | 0.00 | 0.00 | 0.00 | 48 | 1016.0 |
| 20260504014813 | 10 | 156 | 0.0 | 1.6 | 0.00 | 0.00 | 0.00 | 45 | 1016.0 |
| 20260504014313 | 10 | 160 | 0.0 | 1.6 | 0.00 | 0.00 | 0.00 | 47 | 1016.0 |
| 20260504013814 | 10 | 163 | 1.6 | 1.6 | 0.00 | 0.00 | 0.00 | 48 | 1016.0 |
| 20260504013100 | 10 | 71 | 1.6 | 1.6 | 0.00 | 0.00 | 0.00 | 50 | 1016.0 |
| 20260504012559 | 11 | 90 | 1.6 | 1.6 | 0.00 | 0.00 | 0.00 | 47 | 1016.0 |
| 20260504012100 | 11 | 90 | 0.0 | 1.6 | 0.00 | 0.00 | 0.00 | 47 | 1016.0 |
| 20260504011600 | 11 | 203 | 0.0 | 1.6 | 0.00 | 0.00 | 0.00 | 45 | 1016.0 |
| 20260504011100 | 11 | 214 | 0.0 | 1.6 | 0.00 | 0.00 | 0.00 | 43 | 1016.0 |
| 20260504010559 | 11 | 179 | 0.0 | 1.6 | 0.00 | 0.00 | 0.00 | 43 | 1016.0 |
| 20260504005848 | 11 | 162 | 1.6 | 1.6 | 0.00 | 0.00 | 0.00 | 42 | 1016.0 |
| 20260504005348 | 11 | 129 | 1.6 | 1.6 | 0.00 | 0.00 | 0.00 | 42 | 1016.0 |
| 20260504004636 | 12 | 131 | 0.0 | 1.6 | 0.00 | 0.00 | 0.00 | 42 | 1015.0 |
| 20260504004136 | 12 | 161 | 1.6 | 3.2 | 0.00 | 0.00 | 0.00 | 39 | 1015.0 |
| 20260504002959 | 12 | 171 | 3.2 | 3.2 | 0.00 | 0.00 | 0.00 | 37 | 1015.0 |
| 20260504002459 | 12 | 185 | 1.6 | 1.6 | 0.00 | 0.00 | 0.00 | 36 | 1015.0 |
| 20260504001959 | 12 | 90 | 0.0 | 1.6 | 0.00 | 0.00 | 0.00 | 39 | 1015.0 |
| 20260504001500 | 13 | 163 | 1.6 | 3.2 | 0.00 | 0.00 | 0.00 | 39 | 1015.0 |
| 20260504000959 | 13 | 161 | 1.6 | 3.2 | 0.00 | 0.00 | 0.00 | 38 | 1015.0 |
| 20260504000500 | 13 | 154 | 1.6 | 1.6 | 0.00 | 0.00 | 0.00 | 37 | 1015.0 |
| 20260504000000 | 13 | 134 | 0.0 | 1.6 | 0.00 | 0.00 | 0.00 | 37 | 1015.0 |
| 20260503235248 | 13 | 156 | 0.0 | 1.6 | 0.00 | 0.00 | 0.00 | 36 | 1015.0 |
| 20260503234749 | 14 | 158 | 0.0 | 1.6 | 0.00 | 0.00 | 0.00 | 35 | 1015.0 |
| 20260503234247 | 14 | 90 | 0.0 | 3.2 | 0.00 | 0.00 | 0.00 | 35 | 1015.0 |
| 20260503233749 | 14 | 168 | 1.6 | 3.2 | 0.00 | 0.00 | 0.00 | 35 | 1015.0 |
| 20260503233247 | 15 | 140 | 0.0 | 3.2 | 0.00 | 0.00 | 0.00 | 35 | 1015.0 |
| 20260503232747 | 15 | 183 | 0.0 | 3.2 | 0.00 | 0.00 | 0.00 | 34 | 1015.0 |
| 20260503232248 | 15 | 306 | 0.0 | 3.2 | 0.00 | 0.00 | 0.00 | 33 | 1015.0 |
| 20260503231747 | 15 | 179 | 0.0 | 3.2 | 0.00 | 0.00 | 0.00 | 33 | 1015.0 |
| 20260503231036 | 15 | 71 | 1.6 | 6.4 | 0.00 | 0.00 | 0.00 | 31 | 1015.0 |
| 20260503230536 | 15 | 143 | 0.0 | 9.7 | 0.00 | 0.00 | 0.00 | 30 | 1015.0 |
| 20260503230037 | 15 | 90 | 0.0 | 3.2 | 0.00 | 0.00 | 0.00 | 32 | 1015.0 |
| 20260503225536 | 15 | 179 | 0.0 | 3.2 | 0.00 | 0.00 | 0.00 | 32 | 1015.0 |
| 20260503224825 | 15 | 46 | 3.2 | 8.0 | 0.00 | 0.00 | 0.00 | 30 | 1015.0 |
| 20260503224325 | 15 | 191 | 1.6 | 8.0 | 0.00 | 0.00 | 0.00 | 29 | 1015.0 |
| 20260503223613 | 15 | 289 | 0.0 | 6.4 | 0.00 | 0.00 | 0.00 | 30 | 1015.0 |
| 20260503223113 | 15 | 179 | 0.0 | 4.8 | 0.00 | 0.00 | 0.00 | 30 | 1015.0 |
| 20260503222614 | 15 | 233 | 1.6 | 6.4 | 0.00 | 0.00 | 0.00 | 30 | 1015.0 |
| 20260503222113 | 15 | 90 | 1.6 | 12.9 | 0.00 | 0.00 | 0.00 | 28 | 1015.0 |
| 20260503221612 | 15 | 266 | 6.4 | 24.1 | 0.00 | 0.00 | 0.00 | 28 | 1015.0 |
| 20260503221112 | 16 | 232 | 0.0 | 6.4 | 0.00 | 0.00 | 0.00 | 30 | 1015.0 |
| 20260503220614 | 16 | 204 | 3.2 | 9.7 | 0.00 | 0.00 | 0.00 | 30 | 1015.0 |
| 20260503220112 | 16 | 120 | 4.8 | 8.0 | 0.00 | 0.00 | 0.00 | 27 | 1015.0 |
| 20260503215614 | 16 | 225 | 1.6 | 4.8 | 0.00 | 0.00 | 0.00 | 29 | 1015.0 |
| 20260503214859 | 16 | 30 | 3.2 | 8.0 | 0.00 | 0.00 | 0.00 | 29 | 1015.0 |
| 20260503214359 | 16 | 9 | 4.8 | 9.7 | 0.00 | 0.00 | 0.00 | 29 | 1015.0 |
| 20260503213647 | 16 | 181 | 1.6 | 12.9 | 0.00 | 0.00 | 0.00 | 29 | 1015.0 |
| 20260503213147 | 16 | 223 | 3.2 | 11.3 | 0.00 | 0.00 | 0.00 | 30 | 1015.0 |
| 20260503212647 | 15 | 121 | 0.0 | 8.0 | 0.00 | 0.00 | 0.00 | 28 | 1015.0 |
| 20260503211723 | 15 | 293 | 1.6 | 11.3 | 0.00 | 0.00 | 0.00 | 28 | 1015.0 |
| 20260503211223 | 16 | 26 | 1.6 | 9.7 | 0.00 | 0.00 | 0.00 | 30 | 1015.0 |
| 20260503210724 | 15 | 205 | 1.6 | 12.9 | 0.00 | 0.00 | 0.00 | 30 | 1015.0 |
| 20260503210223 | 15 | 154 | 1.6 | 9.7 | 0.00 | 0.00 | 0.00 | 30 | 1015.0 |
| 20260503205723 | 15 | 111 | 4.8 | 9.7 | 0.00 | 0.00 | 0.00 | 29 | 1015.0 |
| 20260503205223 | 15 | 1 | 9.7 | 12.9 | 0.00 | 0.00 | 0.00 | 30 | 1015.0 |
| 20260503204300 | 15 | 61 | 4.8 | 9.7 | 0.00 | 0.00 | 0.00 | 28 | 1015.0 |
| 20260503203802 | 16 | 40 | 0.0 | 19.3 | 0.00 | 0.00 | 0.00 | 31 | 1015.0 |
| 20260503203302 | 15 | 272 | 3.2 | 11.3 | 0.00 | 0.00 | 0.00 | 30 | 1015.0 |
| 20260503202801 | 15 | 81 | 3.2 | 12.9 | 0.00 | 0.00 | 0.00 | 29 | 1015.0 |
| 20260503202300 | 16 | 321 | 1.6 | 11.3 | 0.00 | 0.00 | 0.00 | 28 | 1015.0 |
| 20260503201800 | 16 | 189 | 1.6 | 12.9 | 0.00 | 0.00 | 0.00 | 29 | 1015.0 |
| 20260503201300 | 16 | 337 | 4.8 | 14.5 | 0.00 | 0.00 | 0.00 | 28 | 1015.0 |
| 20260503200800 | 16 | 212 | 8.0 | 12.9 | 0.00 | 0.00 | 0.00 | 27 | 1015.0 |
| 20260503200300 | 16 | 47 | 0.0 | 14.5 | 0.00 | 0.00 | 0.00 | 29 | 1015.0 |
| 20260503195801 | 17 | 12 | 3.2 | 8.0 | 0.00 | 0.00 | 0.00 | 28 | 1015.0 |
| 20260503195048 | 16 | 247 | 3.2 | 9.7 | 0.00 | 0.00 | 0.00 | 28 | 1016.0 |
| 20260503194549 | 16 | 43 | 3.2 | 9.7 | 0.00 | 0.00 | 0.00 | 27 | 1015.0 |
| 20260503194048 | 16 | 337 | 3.2 | 9.7 | 0.00 | 0.00 | 0.00 | 27 | 1016.0 |
| 20260503193549 | 16 | 254 | 1.6 | 11.3 | 0.00 | 0.00 | 0.00 | 26 | 1016.0 |
| 20260503193048 | 16 | 211 | 3.2 | 14.5 | 0.00 | 0.00 | 0.00 | 26 | 1016.0 |
| 20260503192548 | 17 | 217 | 4.8 | 11.3 | 0.00 | 0.00 | 0.00 | 26 | 1016.0 |
| 20260503192048 | 17 | 302 | 4.8 | 16.1 | 0.00 | 0.00 | 0.00 | 28 | 1016.0 |
| 20260503191548 | 18 | 194 | 3.2 | 9.7 | 0.00 | 0.00 | 0.00 | 28 | 1016.0 |
| 20260503191048 | 17 | 209 | 0.0 | 9.7 | 0.00 | 0.00 | 0.00 | 31 | 1016.0 |
| 20260503190337 | 17 | 200 | 3.2 | 14.5 | 0.00 | 0.00 | 0.00 | 26 | 1016.0 |
| 20260503185837 | 17 | 243 | 3.2 | 12.9 | 0.00 | 0.00 | 0.00 | 30 | 1016.0 |
| 20260503185337 | 17 | 219 | 0.0 | 14.5 | 0.00 | 0.00 | 0.00 | 28 | 1016.0 |
| 20260503184838 | 17 | 186 | 3.2 | 9.7 | 0.00 | 0.00 | 0.00 | 30 | 1016.0 |
| 20260503184337 | 17 | 232 | 4.8 | 12.9 | 0.00 | 0.00 | 0.00 | 29 | 1016.0 |
| 20260503183836 | 16 | 307 | 3.2 | 14.5 | 0.00 | 0.00 | 0.00 | 31 | 1017.0 |
| 20260503183125 | 16 | 94 | 4.8 | 14.5 | 0.00 | 0.00 | 0.00 | 31 | 1017.0 |
| 20260503182626 | 16 | 29 | 3.2 | 16.1 | 0.00 | 0.00 | 0.00 | 31 | 1017.0 |
| 20260503182125 | 15 | 235 | 1.6 | 9.7 | 0.00 | 0.00 | 0.00 | 30 | 1017.0 |
| 20260503181625 | 16 | 62 | 1.6 | 19.3 | 0.00 | 0.00 | 0.00 | 30 | 1017.0 |
| 20260503181125 | 17 | 184 | 4.8 | 9.7 | 0.00 | 0.00 | 0.00 | 28 | 1017.0 |
| 20260503180626 | 17 | 218 | 1.6 | 9.7 | 0.00 | 0.00 | 0.00 | 27 | 1017.0 |
| 20260503180125 | 17 | 118 | 0.0 | 11.3 | 0.00 | 0.00 | 0.00 | 28 | 1017.0 |
| 20260503175625 | 17 | 97 | 6.4 | 12.9 | 0.00 | 0.00 | 0.00 | 30 | 1017.0 |
| 20260503175125 | 16 | 119 | 6.4 | 14.5 | 0.00 | 0.00 | 0.00 | 30 | 1017.0 |
| 20260503174625 | 16 | 119 | 1.6 | 11.3 | 0.00 | 0.00 | 0.00 | 33 | 1017.0 |
| 20260503174126 | 16 | 213 | 11.3 | 12.9 | 0.00 | 0.00 | 0.00 | 29 | 1017.0 |
| 20260503173625 | 15 | 104 | 1.6 | 16.1 | 0.00 | 0.00 | 0.00 | 30 | 1017.0 |
| 20260503172914 | 15 | 45 | 14.5 | 16.1 | 0.00 | 0.00 | 0.00 | 30 | 1017.0 |
| 20260503172414 | 16 | 153 | 1.6 | 8.0 | 0.00 | 0.00 | 0.00 | 31 | 1017.0 |
| 20260503171915 | 15 | 178 | 3.2 | 19.3 | 0.00 | 0.00 | 0.00 | 28 | 1017.0 |
| 20260503171415 | 15 | 3 | 8.0 | 16.1 | 0.00 | 0.00 | 0.00 | 30 | 1017.0 |
| 20260503170915 | 14 | 8 | 6.4 | 17.7 | 0.00 | 0.00 | 0.00 | 28 | 1017.0 |
| 20260503170414 | 15 | 320 | 8.0 | 12.9 | 0.00 | 0.00 | 0.00 | 31 | 1017.0 |
| 20260503160203 | 14 | 179 | 6.4 | 19.3 | 0.00 | 0.00 | 0.00 | 28 | 1017.0 |
| 20260503150737 | 11 | 187 | 9.7 | 24.1 | 0.00 | 0.00 | 0.00 | 34 | 1017.0 |
| 20260503150237 | 11 | 33 | 6.4 | 16.1 | 0.00 | 0.00 | 0.00 | 33 | 1017.0 |
| 20260503131101 | 6 | 331 | 3.2 | 19.3 | 0.00 | 0.00 | 0.00 | 51 | 1018.0 |
| 20260503130601 | 6 | 35 | 8.0 | 12.9 | 0.00 | 0.00 | 0.00 | 48 | 1018.0 |
| 20260503110714 | 4 | 293 | 3.2 | 6.4 | 0.00 | 0.00 | 0.00 | 62 | 1017.0 |
| 20260503110214 | 4 | 90 | 1.6 | 4.8 | 0.00 | 0.00 | 0.00 | 63 | 1016.0 |